Weather History for Chennai, India

Change the Weather History Date:

Saturday, March 9, 2013

  Actual Average Record
Temperature  
Mean Temperature 83 °F -  
Max Temperature 91 °F 90 °F 98 °F (2011)
Min Temperature 75 °F 75 °F 66 °F (2008)
Cooling Degree Days 18    
Growing Degree Days 33 (Base 50)    
Moisture  
Dew Point 75 °F    
Average Humidity 77    
Maximum Humidity 94    
Minimum Humidity 51    
Precipitation  
Precipitation 0.00 in 0.01 in - ()
Sea Level Pressure  
Sea Level Pressure 29.89 in    
Wind  
Wind Speed 4 mph ()    
Max Wind Speed 12 mph    
Max Gust Speed -    
Visibility 3.9 miles    
Events      
Averages and records for this station are not official NWS values.
T = Trace of Precipitation, MM = Missing Value Source: Averaged Metar Reports

Daily Weather History Graph

Daily Weather History Graph

Search for Another Location

Airport:

Trip Planner

Search our weather history database for the weather conditions in past years. The results will help you decide how hot, cold, wet, or windy it might be!

Date:

Astronomy

Mar. 09, 2013 Rise Set
Actual Time 6:20 AM IST 6:19 PM IST
Civil Twilight 5:59 AM IST 6:40 PM IST
Nautical Twilight 5:34 AM IST 7:05 PM IST
Astronomical Twilight 5:10 AM IST 7:29 PM IST
Moon 4:04 AM IST (3/9) 4:07 PM IST (3/9)
Length of Visible Light 12h 41m
Length of Day
11h 58m
Waning Crescent, 8% of the Moon is Illuminated
Mar 9
Waning Crescent
Mar 12
New
Mar 19
First Quarter
Mar 27
Full
Apr 3
Last Quarter

Hourly Weather History & Observations

Time (IST) Temp. Heat Index Dew Point Humidity Pressure Visibility Wind Dir Wind Speed Gust Speed Precip Events Conditions
12:10 AM 80.6 °F 86.2 °F 75.2 °F 84% 29.95 in 3.7 mi ESE 5.8 mph - N/A   Scattered Clouds
12:40 AM 80.6 °F 86.2 °F 75.2 °F 84% 29.92 in 3.7 mi SE 4.6 mph - N/A   Scattered Clouds
1:10 AM 80.6 °F 86.2 °F 75.2 °F 84% 29.92 in 3.7 mi Calm Calm - N/A   Scattered Clouds
1:40 AM 78.8 °F - 75.2 °F 89% 29.89 in 3.7 mi Calm Calm - N/A   Scattered Clouds
2:10 AM 78.8 °F - 75.2 °F 89% 29.89 in 3.7 mi Calm Calm - N/A   Scattered Clouds
2:30 AM 79 °F - 75 °F 85% 29.92 in 2 mi Calm Calm - -   Scattered Clouds
2:40 AM 78.8 °F - 75.2 °F 89% 29.89 in 3.7 mi Calm Calm - N/A   Scattered Clouds
3:10 AM 78.8 °F - 75.2 °F 89% 29.89 in 3.7 mi Calm Calm - N/A   Scattered Clouds
3:40 AM 78.8 °F - 75.2 °F 89% 29.89 in 3.7 mi Calm Calm - N/A   Scattered Clouds
4:10 AM 77.0 °F - 75.2 °F 94% 29.89 in 3.7 mi Calm Calm - N/A   Scattered Clouds
4:40 AM 77.0 °F - 75.2 °F 94% 29.89 in 3.7 mi West 3.5 mph - N/A   Scattered Clouds
5:30 AM 78 °F - 74 °F 84% 29.91 in 2 mi Calm Calm - -   Scattered Clouds
5:40 AM 77.0 °F - 75.2 °F 94% 29.89 in 2.5 mi NNW 3.5 mph - N/A   Haze
6:40 AM 77.0 °F - 75.2 °F 94% 29.92 in 1.1 mi Calm Calm - N/A   Scattered Clouds
7:10 AM 77.0 °F - 75.2 °F 94% 29.92 in 1.2 mi Calm Calm - N/A   Scattered Clouds
7:40 AM 78.8 °F - 75.2 °F 89% 29.95 in 1.2 mi Calm Calm - N/A   Scattered Clouds
8:10 AM 78.8 °F - 75.2 °F 89% 29.95 in 1.6 mi Calm Calm - N/A   Scattered Clouds
8:30 AM 82 °F - 76 °F 76% 29.98 in 6 mi NW 2.3 mph - -   Partly Cloudy
9:10 AM 82.4 °F 89.5 °F 75.2 °F 79% 29.95 in 2.8 mi Calm Calm - N/A   Haze
10:10 AM 86.0 °F 95.1 °F 75.2 °F 70% 29.95 in 3.7 mi NNE 4.6 mph - N/A   Scattered Clouds
10:40 AM 86.0 °F 93.4 °F 73.4 °F 66% 29.95 in 3.7 mi ENE 4.6 mph - N/A   Scattered Clouds
11:10 AM 87.8 °F 97.6 °F 75.2 °F 66% 29.95 in 4.3 mi East 6.9 mph - N/A   Scattered Clouds
11:30 AM 90 °F - 75 °F 53% 29.97 in 6 mi NE 2.3 mph - -   Partly Cloudy
11:40 AM 89.6 °F 99.8 °F 75.2 °F 62% 29.92 in 5.0 mi ESE 6.9 mph - N/A   Scattered Clouds
12:10 PM 89.6 °F 99.8 °F 75.2 °F 62% 29.92 in 5.0 mi SE 6.9 mph - N/A   Scattered Clouds
12:40 PM 89.6 °F 99.8 °F 75.2 °F 62% 29.89 in 5.0 mi ESE 6.9 mph - N/A   Scattered Clouds
1:10 PM 89.6 °F 99.8 °F 75.2 °F 62% 29.89 in 5.0 mi ESE 9.2 mph - N/A   Partly Cloudy
1:40 PM 89.6 °F 99.8 °F 75.2 °F 62% 29.86 in 5.0 mi East 10.4 mph - N/A   Partly Cloudy
2:10 PM 89.6 °F 98.2 °F 73.4 °F 59% 29.86 in 5.0 mi East 9.2 mph - N/A   Partly Cloudy
2:30 PM 90 °F - 74 °F 51% 29.89 in 6 mi SE 5.8 mph - -   Scattered Clouds
2:40 PM 89.6 °F 99.8 °F 75.2 °F 62% 29.83 in 5.0 mi ESE 11.5 mph - N/A   Partly Cloudy
3:10 PM 89.6 °F 98.2 °F 73.4 °F 59% 29.83 in 5.6 mi ESE 9.2 mph - N/A   Partly Cloudy
3:40 PM 87.8 °F 95.6 °F 73.4 °F 62% 29.83 in 5.6 mi ESE 11.5 mph - N/A   Partly Cloudy
4:10 PM 87.8 °F 95.6 °F 73.4 °F 62% 29.83 in 5.6 mi SE 10.4 mph - N/A   Partly Cloudy
4:40 PM 86.0 °F 93.4 °F 73.4 °F 66% 29.80 in 5.6 mi East 11.5 mph - N/A   Partly Cloudy
5:10 PM 86.0 °F 95.1 °F 75.2 °F 70% 29.80 in 5.0 mi SE 10.4 mph - N/A   Partly Cloudy
5:30 PM 85 °F - 75 °F 65% 29.84 in 6 mi East 4.6 mph - -   Clear
5:40 PM 84.2 °F 92.3 °F 75.2 °F 74% 29.80 in 4.3 mi ESE 10.4 mph - N/A   Partly Cloudy
6:10 PM 84.2 °F 92.3 °F 75.2 °F 74% 29.83 in 3.7 mi ESE 9.2 mph - N/A   Partly Cloudy
6:40 PM 82.4 °F 89.5 °F 75.2 °F 79% 29.83 in 3.7 mi ESE 10.4 mph - N/A   Partly Cloudy
7:10 PM 82.4 °F 89.5 °F 75.2 °F 79% 29.86 in 3.7 mi ESE 6.9 mph - N/A   Partly Cloudy
7:40 PM 82.4 °F 89.5 °F 75.2 °F 79% 29.86 in 3.7 mi SE 5.8 mph - N/A   Partly Cloudy
8:10 PM 82.4 °F 89.5 °F 75.2 °F 79% 29.89 in 3.7 mi SE 5.8 mph - N/A   Partly Cloudy
8:30 PM 82 °F - 76 °F 77% 29.92 in 2 mi SE 3.5 mph - -   Scattered Clouds
8:40 PM 82.4 °F 89.5 °F 75.2 °F 79% 29.89 in 3.7 mi SE 6.9 mph - N/A   Partly Cloudy
9:10 PM 82.4 °F 89.5 °F 75.2 °F 79% 29.89 in 3.7 mi ESE 4.6 mph - N/A   Partly Cloudy
9:40 PM 82.4 °F 89.5 °F 75.2 °F 79% 29.89 in 3.7 mi SE 5.8 mph - N/A   Partly Cloudy
10:10 PM 80.6 °F 86.2 °F 75.2 °F 84% 29.89 in 3.7 mi SE 4.6 mph - N/A   Partly Cloudy
10:40 PM 80.6 °F 86.2 °F 75.2 °F 84% 29.89 in 3.7 mi SSE 3.5 mph - N/A   Partly Cloudy
11:10 PM 80.6 °F 86.2 °F 75.2 °F 84% 29.89 in 3.7 mi SSE 5.8 mph - N/A   Partly Cloudy
11:30 PM 80 °F - 76 °F 83% 29.92 in 2 mi SE 2.3 mph - -   Scattered Clouds
11:40 PM 80.6 °F 86.2 °F 75.2 °F 84% 29.89 in 3.7 mi South 2.3 mph - N/A   Partly Cloudy